OBJECT AA, 47437

Orbit data source: Space-Track

You're viewing an Uncataloged Satellite

Recently launched and/or uncataloged satellites may have evolving metadata. Metadata may include but not limited to: Owner, Maufacturer, Bus, Motor, and Mission.

OBJECT AA, 47437 is a satellite in SSO that was launched on Sun, 24 Jan 2021 UTC launched from the Air Force Eastern Test Range (AFETR). Unknown objects in Earth's orbit typically refer to objects detected orbiting the Earth but have not yet been identified or cataloged. These objects could be anything from previously untracked satellites, spent rocket stages, debris from satellite collisions, or even natural meteoroids temporarily captured by Earth's gravity.

Loading next visibility...
Identifier
47437, 2021-006AA
Orbit
SSO
Country
Flag of TBDTBD
Related business
Manufacturer
SpaceX/Seattle
Mission
Spacecraft
Bus & Motor
Unknown
Mass
~100 kg wet, ~100 kg dry
Launch date (UTC)
2021-01-24 (5 years ago)
Launch vehicle
Unknown
Launch site
Air Force Eastern Test Range (AFETR)
Object type
Unknown
Shape & HBR
Cyl, Unknown HBR
Radar Cross Section
0.110 m², Medium (>0.1 m² and < 1m²)

Expand to show TLE details & history
Last TLE update: 23 hours ago

TLE from 23 hours ago
0 OBJECT AA
1 47437U 21006AA  25315.25492226  .00009293  00000-0  33927-3 0  9992
2 47437  97.2566 356.8032 0007498 257.4816 102.5586 15.28313735266009
Epoch: 2025-11-11T06:07Z
TLE epoch observation values (Epoch: 2025-11-11T06:07:05.283Z)
Latitude
0.00004°
Longitude
-145.61292°
Altitude
485.081 km
Speed
7.622 km/s
True Right ascension
23h 47m 12s
True Declination
0° 00' 00"
Sunlit
Object was in full shadow at epoch
Visualization orbit readout
Latitude
Unknown
Longitude
Unknown
Altitude
Unknown
Speed
Unknown
Apparent Right ascension
Unknown
Apparent Declination
Unknown
Sunlit
N/A
Visualization observer readout
Local Sidereal Time
01:18:19
Azimuth
Unknown
Elevation
Unknown
Doppler factor
Unknown
Orbital elements
Apogee altitude
482.942 km
Perigee altitude
472.661 km
Semi-major axis
6,855.938 km
Eccentricity
0.00075
Inclination
97.2566°
RAAN
356.8032°
Arg. of periapsis
257.4816°
True anomaly
102.64245°
Mean anomaly
102.5586°
Eccentric anomaly
102.60053°
Mean motion
3.82334 °/min
Orbital period
94.16 mins
BSTAR
0.00033927
Loading maneuver chart data...
Computing Atmospheric mass density...

Documentation

Showing up to 5 results
|